• Join FlightAware (Why Join?)
  • Login
  • US Flag 
01:44AM EDT


 

Airport Tracker/Info


-or-


 

Live Flight TrackerFlight Track Log ✈ EGF2820 ✈ 19-Jul-2013 ✈ KGRK - KDFW

Flight Track Log - Related Links

Times and Time Zones

All times are in EDT time to prevent confusion due to time zone crossing. See the EGF2820 flight status page for this flight to view local times or setup timezone preferences in your user account.

Time Position Orientation Groundspeed Altitude Reporting Facility
EDT Latitude Longitude Course Direction KTS MPH feet Rate Location/Type
06:38AM 31.0497 -97.8281 North 169 194 1,700  Level Fort Worth Center
06:39AM 31.0578 -97.8764 281° West 225 259 3,600 1,560 Climbing Fort Worth Center
06:39AM 31.1058 -97.9011 336° Northwest 272 313 4,400 1,980 Climbing Fort Worth Center
06:40AM 31.1494 -98.0487 300° West  Level FlightAware Approximate
06:40AM 31.1747 -97.9328 339° North 278 320 6,800  Level Fort Worth Center
06:41AM 31.1805 -98.1247 291° West  Level FlightAware Approximate
06:41AM 31.2433 -97.9575 343° North 308 354 9,200  Level Fort Worth Center
06:42AM 31.2442 -98.1090 19° North  Level FlightAware Approximate
06:42AM 31.3247 -97.9508 North 293 337 11,000  Level Fort Worth Center
06:43AM 31.3149 -98.0931 North  Level FlightAware Approximate
06:43AM 31.4125 -97.9294 12° North 303 349 12,200  Level Fort Worth Center
06:44AM 31.5047 -97.9031 14° North 329 379 13,300 960 Climbing Fort Worth Center
06:45AM 31.5944 -97.8767 14° North 347 399 14,200 900 Climbing Fort Worth Center
06:46AM 31.6928 -97.8503 13° North 358 412 15,200 1,020 Climbing Fort Worth Center
06:47AM 31.7950 -97.8192 15° North 358 412 16,300 900 Climbing Fort Worth Center
06:48AM 31.8994 -97.7903 13° North 374 430 17,000 300 Climbing Fort Worth Center
06:49AM 32.0144 -97.7539 15° North 379 436 17,000  Level Fort Worth Center
06:50AM 32.1106 -97.7272 13° North 390 449 17,000 -480 Level Fort Worth Center
06:51AM 32.2317 -97.6933 13° North 400 460 16,100 -1,380 Descending Fort Worth Center
06:52AM 32.3258 -97.6642 15° North 390 449 14,300 -1,980 Descending Fort Worth Center
06:53AM 32.4136 -97.5783 40° Northeast 365 420 12,200 -1,680 Descending Fort Worth Center
06:54AM 32.4764 -97.4972 47° Northeast 365 420 11,000 -600 Descending Fort Worth Center
06:55AM 32.5558 -97.4011 46° Northeast 365 420 11,000  Level Fort Worth Center
06:56AM 32.6203 -97.3222 46° Northeast 365 420 11,000 -180 Level Fort Worth Center
06:57AM 32.7081 -97.2506 34° Northeast 350 403 10,700 -1,020 Descending Fort Worth Center
06:58AM 32.7769 -97.2183 21° North 302 348 9,000 -2,040 Descending Fort Worth Center
06:59AM 32.8561 -97.1736 25° Northeast 283 326 6,700 -2,340 Descending Fort Worth Center